Time,TemperatureF,DewpointF,PressureIn,WindDirection,WindDirectionDegrees,WindSpeedMPH,WindSpeedGustMPH,Humidity,HourlyPrecipIn,Conditions,Clouds,dailyrainin,SoftwareType,DateUTC
2013-02-28 00:00:00,32.1,31.1,29.70,NE,48,0.0,0.0,96,0.00,,---,0.00,VWS V14.01,2013-02-28 05:00:00,
2013-02-28 00:05:00,31.9,30.9,29.70,NNE,20,0.0,0.0,96,0.00,,---,0.00,VWS V14.01,2013-02-28 05:05:00,
2013-02-28 00:10:00,31.9,30.9,29.70,NNE,23,0.0,0.0,96,0.00,,---,0.00,VWS V14.01,2013-02-28 05:10:00,
2013-02-28 00:15:00,31.9,30.9,29.70,ENE,63,0.0,0.0,96,0.00,,---,0.00,VWS V14.01,2013-02-28 05:15:00,
2013-02-28 00:20:00,31.9,30.9,29.70,NE,38,0.0,0.0,96,0.00,,---,0.00,VWS V14.01,2013-02-28 05:20:00,
2013-02-28 00:25:00,31.9,30.9,29.70,NE,38,0.0,0.0,96,0.00,,---,0.00,VWS V14.01,2013-02-28 05:25:00,
2013-02-28 00:30:00,31.9,30.9,29.70,ENE,59,0.0,0.0,96,0.00,,---,0.00,VWS V14.01,2013-02-28 05:30:00,
2013-02-28 00:35:00,31.9,30.9,29.70,NE,37,0.0,0.0,96,0.00,,---,0.00,VWS V14.01,2013-02-28 05:35:00,
2013-02-28 00:40:00,31.9,30.9,29.70,NE,39,0.0,0.0,96,0.00,,---,0.00,VWS V14.01,2013-02-28 05:40:00,
2013-02-28 00:45:00,31.9,30.9,29.70,NE,34,0.0,0.0,96,0.00,,---,0.00,VWS V14.01,2013-02-28 05:45:00,
2013-02-28 00:50:00,31.9,30.9,29.70,NNE,33,0.0,0.0,96,0.00,,---,0.00,VWS V14.01,2013-02-28 05:50:00,
2013-02-28 00:55:00,31.9,30.9,29.70,NE,36,0.0,0.0,96,0.00,,---,0.00,VWS V14.01,2013-02-28 05:55:00,
2013-02-28 01:00:00,31.9,30.9,29.70,NE,56,0.0,0.0,96,0.00,,---,0.00,VWS V14.01,2013-02-28 06:00:00,
2013-02-28 01:05:00,31.9,30.9,29.70,NE,34,0.0,0.0,96,0.00,,---,0.00,VWS V14.01,2013-02-28 06:05:00,
2013-02-28 01:10:00,31.9,30.9,29.70,NNE,21,0.0,0.0,96,0.00,,---,0.00,VWS V14.01,2013-02-28 06:10:00,
2013-02-28 01:15:00,31.9,30.9,29.70,NE,51,0.0,0.0,96,0.00,,---,0.00,VWS V14.01,2013-02-28 06:15:00,
2013-02-28 01:20:00,31.9,30.6,29.70,NNE,32,0.0,0.0,95,0.00,,---,0.00,VWS V14.01,2013-02-28 06:20:00,
2013-02-28 01:25:00,31.9,30.6,29.71,NE,47,0.0,0.0,95,0.00,,---,0.00,VWS V14.01,2013-02-28 06:25:00,
2013-02-28 01:30:00,31.9,30.6,29.71,NE,39,0.0,0.0,95,0.00,,---,0.00,VWS V14.01,2013-02-28 06:30:00,
2013-02-28 01:35:00,31.9,30.9,29.71,NE,35,0.0,0.0,96,0.00,,---,0.00,VWS V14.01,2013-02-28 06:35:00,
2013-02-28 01:40:00,31.9,30.9,29.71,NNE,26,0.0,0.0,96,0.00,,---,0.00,VWS V14.01,2013-02-28 06:40:00,
2013-02-28 01:45:00,31.8,30.8,29.71,NE,52,0.0,0.0,96,0.00,,---,0.00,VWS V14.01,2013-02-28 06:45:00,
2013-02-28 01:50:00,31.8,30.8,29.71,NE,35,0.0,0.0,96,0.00,,---,0.00,VWS V14.01,2013-02-28 06:50:00,
2013-02-28 01:56:00,31.8,30.8,29.71,NNE,22,0.0,0.0,96,0.00,,---,0.00,VWS V14.01,2013-02-28 06:56:00,
2013-02-28 02:01:00,31.8,30.8,29.72,NE,50,0.0,0.0,96,0.00,,---,0.00,VWS V14.01,2013-02-28 07:01:00,
2013-02-28 02:06:00,31.8,30.8,29.72,NE,38,0.0,0.0,96,0.00,,---,0.00,VWS V14.01,2013-02-28 07:06:00,
2013-02-28 02:11:00,31.8,30.8,29.72,ENE,57,0.0,0.0,96,0.00,,---,0.00,VWS V14.01,2013-02-28 07:11:00,
2013-02-28 02:16:00,31.8,30.8,29.72,NNE,30,0.0,0.0,96,0.00,,---,0.00,VWS V14.01,2013-02-28 07:16:00,
2013-02-28 02:21:00,31.8,30.8,29.72,NE,49,0.0,0.0,96,0.00,,---,0.00,VWS V14.01,2013-02-28 07:21:00,
2013-02-28 02:26:00,31.6,30.6,29.72,NNE,26,0.0,0.0,96,0.00,,---,0.00,VWS V14.01,2013-02-28 07:26:00,
2013-02-28 02:31:00,31.6,30.6,29.72,NE,38,0.0,0.0,96,0.00,,---,0.00,VWS V14.01,2013-02-28 07:31:00,
2013-02-28 02:36:00,31.6,30.6,29.72,NE,41,0.0,0.0,96,0.00,,---,0.00,VWS V14.01,2013-02-28 07:36:00,
2013-02-28 02:41:00,31.6,30.6,29.72,NE,34,0.0,0.0,96,0.00,,---,0.00,VWS V14.01,2013-02-28 07:41:00,
2013-02-28 02:46:00,31.6,30.6,29.72,NNE,15,0.0,0.0,96,0.00,,---,0.00,VWS V14.01,2013-02-28 07:46:00,
2013-02-28 02:51:00,31.6,30.6,29.72,NNE,13,0.0,0.0,96,0.00,,---,0.00,VWS V14.01,2013-02-28 07:51:00,
2013-02-28 02:56:00,31.5,30.5,29.72,NNE,29,0.0,0.0,96,0.00,,---,0.00,VWS V14.01,2013-02-28 07:56:00,
2013-02-28 03:01:00,31.5,30.5,29.72,NNE,13,0.0,0.0,96,0.00,,---,0.00,VWS V14.01,2013-02-28 08:01:00,
2013-02-28 03:06:00,31.5,30.5,29.72,NE,39,0.0,0.0,96,0.00,,---,0.00,VWS V14.01,2013-02-28 08:06:00,
2013-02-28 03:11:00,31.5,30.5,29.72,NNE,28,0.0,0.0,96,0.00,,---,0.00,VWS V14.01,2013-02-28 08:11:00,
2013-02-28 03:16:00,31.3,30.3,29.72,NNE,30,0.0,0.0,96,0.00,,---,0.00,VWS V14.01,2013-02-28 08:16:00,
2013-02-28 03:21:00,31.3,30.3,29.72,NNE,31,0.0,0.0,96,0.00,,---,0.00,VWS V14.01,2013-02-28 08:21:00,
2013-02-28 03:26:00,31.3,30.3,29.72,NNE,32,0.0,0.0,96,0.00,,---,0.00,VWS V14.01,2013-02-28 08:26:00,
2013-02-28 03:31:00,31.3,30.3,29.72,NE,37,0.0,0.0,96,0.00,,---,0.00,VWS V14.01,2013-02-28 08:31:00,
2013-02-28 03:36:00,31.3,30.3,29.72,NE,39,0.0,0.0,96,0.00,,---,0.00,VWS V14.01,2013-02-28 08:36:00,
2013-02-28 03:41:00,31.3,30.3,29.72,North,11,0.0,0.0,96,0.00,,---,0.00,VWS V14.01,2013-02-28 08:41:00,
2013-02-28 03:46:00,31.3,30.3,29.72,NE,38,0.0,0.0,96,0.00,,---,0.00,VWS V14.01,2013-02-28 08:46:00,
2013-02-28 03:51:00,31.3,30.3,29.72,NE,55,0.0,0.0,96,0.00,,---,0.00,VWS V14.01,2013-02-28 08:51:00,
2013-02-28 03:56:00,31.3,30.3,29.72,NE,50,0.0,0.0,96,0.00,,---,0.00,VWS V14.01,2013-02-28 08:56:00,
2013-02-28 04:01:00,31.3,30.3,29.73,NNE,33,0.0,0.0,96,0.00,,---,0.00,VWS V14.01,2013-02-28 09:01:00,
2013-02-28 04:06:00,31.3,30.3,29.73,NNE,32,0.0,0.0,96,0.00,,---,0.00,VWS V14.01,2013-02-28 09:06:00,
2013-02-28 04:11:00,31.3,30.3,29.73,NNE,26,0.0,0.0,96,0.00,,---,0.00,VWS V14.01,2013-02-28 09:11:00,
2013-02-28 04:16:00,31.3,30.3,29.73,NE,36,0.0,0.0,96,0.00,,---,0.00,VWS V14.01,2013-02-28 09:16:00,
2013-02-28 04:21:00,31.3,30.0,29.74,NE,51,0.0,0.0,95,0.00,,---,0.00,VWS V14.01,2013-02-28 09:21:00,
2013-02-28 04:26:00,31.3,30.0,29.74,NNE,19,0.0,0.0,95,0.00,,---,0.00,VWS V14.01,2013-02-28 09:26:00,
2013-02-28 04:31:00,31.3,30.0,29.74,NNE,13,0.0,0.0,95,0.00,,---,0.00,VWS V14.01,2013-02-28 09:31:00,
2013-02-28 04:36:00,31.2,29.9,29.74,NE,37,0.0,0.0,95,0.00,,---,0.00,VWS V14.01,2013-02-28 09:36:00,
2013-02-28 04:41:00,31.2,29.9,29.74,NE,55,0.0,0.0,95,0.00,,---,0.00,VWS V14.01,2013-02-28 09:41:00,
2013-02-28 04:46:00,31.2,29.7,29.74,NNE,29,0.0,0.0,94,0.00,,---,0.00,VWS V14.01,2013-02-28 09:46:00,
2013-02-28 04:51:00,31.2,29.7,29.75,NE,45,0.0,0.0,94,0.00,,---,0.00,VWS V14.01,2013-02-28 09:51:00,
2013-02-28 04:56:00,31.2,29.7,29.75,NE,34,0.0,0.0,94,0.00,,---,0.00,VWS V14.01,2013-02-28 09:56:00,
2013-02-28 05:01:00,31.2,29.4,29.75,NE,42,0.0,0.0,93,0.00,,---,0.00,VWS V14.01,2013-02-28 10:01:00,
2013-02-28 05:06:00,31.3,29.2,29.75,NNE,32,0.0,0.0,92,0.00,,---,0.00,VWS V14.01,2013-02-28 10:06:00,
2013-02-28 05:11:00,31.3,29.2,29.75,NE,38,0.0,0.0,92,0.00,,---,0.00,VWS V14.01,2013-02-28 10:11:00,
2013-02-28 05:16:00,31.3,29.0,29.75,NE,56,0.0,0.0,91,0.00,,---,0.00,VWS V14.01,2013-02-28 10:16:00,
2013-02-28 05:21:00,31.5,28.9,29.75,ENE,58,0.0,0.0,90,0.00,,---,0.00,VWS V14.01,2013-02-28 10:21:00,
2013-02-28 05:26:00,31.5,28.9,29.75,NE,51,0.0,0.0,90,0.00,,---,0.00,VWS V14.01,2013-02-28 10:26:00,
2013-02-28 05:31:00,31.5,28.6,29.75,NE,53,0.0,0.0,89,0.00,,---,0.00,VWS V14.01,2013-02-28 10:31:00,
2013-02-28 05:36:00,31.5,28.6,29.76,NE,49,0.0,0.0,89,0.00,,---,0.00,VWS V14.01,2013-02-28 10:36:00,
2013-02-28 05:41:00,31.5,28.6,29.76,NE,42,0.0,0.0,89,0.00,,---,0.00,VWS V14.01,2013-02-28 10:41:00,
2013-02-28 05:46:00,31.5,28.4,29.76,NE,42,0.0,0.0,88,0.00,,---,0.00,VWS V14.01,2013-02-28 10:46:00,
2013-02-28 05:51:00,31.5,28.4,29.76,ENE,73,0.0,0.0,88,0.00,,---,0.00,VWS V14.01,2013-02-28 10:51:00,
2013-02-28 05:56:00,31.5,28.4,29.76,NE,46,0.0,0.0,88,0.00,,---,0.00,VWS V14.01,2013-02-28 10:56:00,
2013-02-28 06:01:00,31.5,28.1,29.76,ENE,73,0.0,0.0,87,0.00,,---,0.00,VWS V14.01,2013-02-28 11:01:00,
2013-02-28 06:06:00,31.5,28.1,29.77,NE,53,0.0,0.0,87,0.00,,---,0.00,VWS V14.01,2013-02-28 11:06:00,
2013-02-28 06:12:00,31.5,27.8,29.77,ENE,71,0.0,0.0,86,0.00,,---,0.00,VWS V14.01,2013-02-28 11:12:00,
2013-02-28 06:17:00,31.5,27.8,29.77,NE,53,0.0,0.0,86,0.00,,---,0.00,VWS V14.01,2013-02-28 11:17:00,
2013-02-28 06:22:00,31.3,27.6,29.78,NE,38,0.0,0.0,86,0.00,,---,0.00,VWS V14.01,2013-02-28 11:22:00,
2013-02-28 06:27:00,31.3,27.6,29.78,NNE,32,0.0,0.0,86,0.00,,---,0.00,VWS V14.01,2013-02-28 11:27:00,
2013-02-28 06:32:00,31.3,27.6,29.78,NE,46,0.0,0.0,86,0.00,,---,0.00,VWS V14.01,2013-02-28 11:32:00,
2013-02-28 06:37:00,31.3,27.9,29.78,NNE,13,0.0,0.0,87,0.00,,---,0.00,VWS V14.01,2013-02-28 11:37:00,
2013-02-28 06:42:00,31.2,27.8,29.78,NNE,28,0.0,0.0,87,0.00,,---,0.00,VWS V14.01,2013-02-28 11:42:00,
2013-02-28 06:47:00,31.2,27.8,29.78,NE,36,0.0,0.0,87,0.00,,---,0.00,VWS V14.01,2013-02-28 11:47:00,
2013-02-28 06:52:00,31.0,27.6,29.79,NE,47,0.0,0.0,87,0.00,,---,0.00,VWS V14.01,2013-02-28 11:52:00,
2013-02-28 06:57:00,31.0,27.6,29.79,NE,34,0.0,0.0,87,0.00,,---,0.00,VWS V14.01,2013-02-28 11:57:00,
2013-02-28 07:02:00,31.0,27.6,29.79,ENE,57,0.0,0.0,87,0.00,,---,0.00,VWS V14.01,2013-02-28 12:02:00,
2013-02-28 07:07:00,30.9,27.8,29.80,NE,53,0.0,0.0,88,0.00,,---,0.00,VWS V14.01,2013-02-28 12:07:00,
2013-02-28 07:12:00,30.9,27.8,29.80,NE,40,0.0,0.0,88,0.00,,---,0.00,VWS V14.01,2013-02-28 12:12:00,
2013-02-28 07:17:00,30.7,27.6,29.80,NNE,32,0.0,0.0,88,0.00,,---,0.00,VWS V14.01,2013-02-28 12:17:00,
2013-02-28 07:22:00,30.7,27.6,29.80,NNE,13,0.0,0.0,88,0.00,,---,0.00,VWS V14.01,2013-02-28 12:22:00,
2013-02-28 07:27:00,30.7,27.6,29.80,NNE,28,0.0,0.0,88,0.00,,---,0.00,VWS V14.01,2013-02-28 12:27:00,
2013-02-28 07:32:00,30.7,27.3,29.80,NNE,14,0.0,0.0,87,0.00,,---,0.00,VWS V14.01,2013-02-28 12:32:00,
2013-02-28 07:37:00,30.7,27.3,29.81,NNE,32,0.0,0.0,87,0.00,,---,0.00,VWS V14.01,2013-02-28 12:37:00,
2013-02-28 07:42:00,30.7,27.3,29.81,NNE,13,0.0,0.0,87,0.00,,---,0.00,VWS V14.01,2013-02-28 12:42:00,
2013-02-28 07:47:00,30.6,27.2,29.81,NNE,28,0.0,0.0,87,0.00,,---,0.00,VWS V14.01,2013-02-28 12:47:00,
2013-02-28 07:52:00,30.6,27.5,29.82,NNE,27,0.0,0.0,88,0.00,,---,0.00,VWS V14.01,2013-02-28 12:52:00,
2013-02-28 07:57:00,30.4,27.3,29.82,North,5,0.0,0.0,88,0.00,,---,0.00,VWS V14.01,2013-02-28 12:57:00,
2013-02-28 08:02:00,30.4,27.3,29.82,NE,40,0.0,0.0,88,0.00,,---,0.00,VWS V14.01,2013-02-28 13:02:00,
2013-02-28 08:07:00,30.4,27.0,29.82,NE,36,0.0,0.0,87,0.00,,---,0.00,VWS V14.01,2013-02-28 13:07:00,
2013-02-28 08:12:00,30.4,27.0,29.83,North,360,0.0,0.0,87,0.00,,---,0.00,VWS V14.01,2013-02-28 13:12:00,
2013-02-28 08:17:00,30.4,27.0,29.83,NNE,26,0.0,0.0,87,0.00,,---,0.00,VWS V14.01,2013-02-28 13:17:00,
2013-02-28 08:22:00,30.6,27.2,29.83,NE,36,0.0,0.0,87,0.00,,---,0.00,VWS V14.01,2013-02-28 13:22:00,
2013-02-28 08:27:00,30.4,27.0,29.83,NE,36,0.0,0.0,87,0.00,,---,0.00,VWS V14.01,2013-02-28 13:27:00,
2013-02-28 08:32:00,30.4,27.0,29.83,NE,43,0.0,0.0,87,0.00,,---,0.00,VWS V14.01,2013-02-28 13:32:00,
2013-02-28 08:37:00,30.4,27.0,29.83,NNE,19,0.0,0.0,87,0.00,,---,0.00,VWS V14.01,2013-02-28 13:37:00,
2013-02-28 08:42:00,30.4,27.0,29.84,NE,56,0.0,0.0,87,0.00,,---,0.00,VWS V14.01,2013-02-28 13:42:00,
2013-02-28 08:47:00,30.4,27.0,29.84,NNE,26,0.0,0.0,87,0.00,,---,0.00,VWS V14.01,2013-02-28 13:47:00,
2013-02-28 08:52:00,30.6,27.2,29.84,ENE,65,0.0,0.0,87,0.00,,---,0.00,VWS V14.01,2013-02-28 13:52:00,
2013-02-28 08:57:00,30.4,27.0,29.84,ENE,58,0.0,0.0,87,0.00,,---,0.00,VWS V14.01,2013-02-28 13:57:00,
2013-02-28 09:02:00,30.4,27.0,29.84,NE,54,0.0,0.0,87,0.00,,---,0.00,VWS V14.01,2013-02-28 14:02:00,
2013-02-28 09:07:00,30.4,27.0,29.84,NE,44,0.0,0.0,87,0.00,,---,0.00,VWS V14.01,2013-02-28 14:07:00,
2013-02-28 09:12:00,30.6,27.2,29.84,NNE,19,0.0,0.0,87,0.00,,---,0.00,VWS V14.01,2013-02-28 14:12:00,
2013-02-28 09:17:00,30.6,26.9,29.84,NNE,26,0.0,0.0,86,0.00,,---,0.00,VWS V14.01,2013-02-28 14:17:00,
2013-02-28 09:22:00,30.7,27.0,29.85,NE,40,0.0,0.0,86,0.00,,---,0.00,VWS V14.01,2013-02-28 14:22:00,
2013-02-28 09:27:00,30.9,26.9,29.85,ENE,58,0.0,0.0,85,0.00,,---,0.00,VWS V14.01,2013-02-28 14:27:00,
2013-02-28 09:32:00,31.0,27.0,29.85,NE,39,0.0,0.0,85,0.00,,---,0.00,VWS V14.01,2013-02-28 14:32:00,
2013-02-28 09:37:00,31.0,26.7,29.85,NNE,26,0.0,0.0,84,0.00,,---,0.00,VWS V14.01,2013-02-28 14:37:00,
2013-02-28 09:42:00,31.0,26.7,29.85,NNE,27,0.0,0.0,84,0.00,,---,0.00,VWS V14.01,2013-02-28 14:42:00,
2013-02-28 09:47:00,31.2,26.9,29.85,NE,46,0.0,0.0,84,0.00,,---,0.00,VWS V14.01,2013-02-28 14:47:00,
2013-02-28 09:52:00,31.3,27.0,29.85,NNE,13,0.0,0.0,84,0.00,,---,0.00,VWS V14.01,2013-02-28 14:52:00,
2013-02-28 09:57:00,31.3,27.0,29.85,NNE,28,0.0,0.0,84,0.00,,---,0.00,VWS V14.01,2013-02-28 14:57:00,
2013-02-28 10:02:00,31.2,27.2,29.85,NNE,17,0.0,0.0,85,0.00,,---,0.00,VWS V14.01,2013-02-28 15:02:00,
2013-02-28 10:07:00,30.7,27.0,29.86,NNE,15,0.0,0.0,86,0.00,,---,0.00,VWS V14.01,2013-02-28 15:07:00,
2013-02-28 10:12:00,30.6,26.9,29.86,NNE,30,0.0,0.0,86,0.00,,---,0.00,VWS V14.01,2013-02-28 15:12:00,
2013-02-28 10:17:00,30.6,26.9,29.86,North,355,0.0,0.0,86,0.00,,---,0.00,VWS V14.01,2013-02-28 15:17:00,
2013-02-28 10:22:00,30.6,26.9,29.86,North,355,0.0,0.0,86,0.00,,---,0.00,VWS V14.01,2013-02-28 15:22:00,
2013-02-28 10:28:00,30.3,26.1,29.86,NNE,22,0.0,0.0,84,0.00,,---,0.00,VWS V14.01,2013-02-28 15:28:00,
2013-02-28 10:33:00,30.3,26.1,29.86,NNE,21,0.0,0.0,84,0.00,,---,0.00,VWS V14.01,2013-02-28 15:33:00,
2013-02-28 10:38:00,30.3,25.8,29.86,North,350,0.0,0.0,83,0.00,,---,0.00,VWS V14.01,2013-02-28 15:38:00,
2013-02-28 10:43:00,30.4,25.6,29.86,NE,44,0.0,0.0,82,0.00,,---,0.00,VWS V14.01,2013-02-28 15:43:00,
2013-02-28 10:48:00,30.6,25.5,29.86,NNE,32,0.0,0.0,81,0.00,,---,0.00,VWS V14.01,2013-02-28 15:48:00,
2013-02-28 10:53:00,30.7,25.3,29.87,NNE,22,0.0,0.0,80,0.00,,---,0.00,VWS V14.01,2013-02-28 15:53:00,
2013-02-28 10:58:00,30.7,25.3,29.87,North,349,0.0,0.0,80,0.00,,---,0.00,VWS V14.01,2013-02-28 15:58:00,
2013-02-28 11:03:00,30.7,25.0,29.87,NNE,25,0.0,0.0,79,0.00,,---,0.00,VWS V14.01,2013-02-28 16:03:00,
2013-02-28 11:08:00,30.7,25.0,29.87,North,10,0.0,0.0,79,0.00,,---,0.00,VWS V14.01,2013-02-28 16:08:00,
2013-02-28 11:13:00,30.6,24.9,29.87,North,11,0.0,0.0,79,0.00,,---,0.00,VWS V14.01,2013-02-28 16:13:00,
2013-02-28 11:18:00,30.6,24.6,29.87,North,5,0.0,0.0,78,0.00,,---,0.00,VWS V14.01,2013-02-28 16:18:00,
2013-02-28 11:23:00,30.6,24.6,29.87,NNE,24,0.0,0.0,78,0.00,,---,0.00,VWS V14.01,2013-02-28 16:23:00,
2013-02-28 11:28:00,30.4,24.4,29.87,NNE,22,0.0,0.0,78,0.00,,---,0.00,VWS V14.01,2013-02-28 16:28:00,
2013-02-28 11:33:00,30.3,24.3,29.87,NNW,343,0.0,0.0,78,0.00,,---,0.00,VWS V14.01,2013-02-28 16:33:00,
2013-02-28 11:38:00,30.3,24.3,29.88,NNE,19,0.0,0.0,78,0.00,,---,0.00,VWS V14.01,2013-02-28 16:38:00,
2013-02-28 11:43:00,30.1,23.8,29.88,NNE,25,0.0,0.0,77,0.00,,---,0.00,VWS V14.01,2013-02-28 16:43:00,
2013-02-28 11:48:00,30.1,24.1,29.88,North,5,0.0,0.0,78,0.00,,---,0.00,VWS V14.01,2013-02-28 16:48:00,
2013-02-28 11:53:00,30.1,23.8,29.88,NNE,13,0.0,0.0,77,0.00,,---,0.00,VWS V14.01,2013-02-28 16:53:00,
2013-02-28 11:58:00,30.0,23.7,29.89,North,355,0.0,0.0,77,0.00,,---,0.00,VWS V14.01,2013-02-28 16:58:00,
2013-02-28 12:03:00,30.1,23.8,29.89,North,11,0.0,0.0,77,0.00,,---,0.00,VWS V14.01,2013-02-28 17:03:00,
2013-02-28 12:08:00,30.0,23.7,29.89,NNE,29,0.0,0.0,77,0.00,,---,0.00,VWS V14.01,2013-02-28 17:08:00,
2013-02-28 12:13:00,30.0,23.7,29.89,North,360,0.0,0.0,77,0.00,,---,0.00,VWS V14.01,2013-02-28 17:13:00,
2013-02-28 12:18:00,30.1,23.8,29.89,North,9,0.0,0.0,77,0.00,,---,0.00,VWS V14.01,2013-02-28 17:18:00,
2013-02-28 12:23:00,30.1,23.8,29.89,North,360,0.0,0.0,77,0.00,,---,0.00,VWS V14.01,2013-02-28 17:23:00,
2013-02-28 12:28:00,30.1,23.8,29.89,NE,38,0.0,0.0,77,0.00,,---,0.00,VWS V14.01,2013-02-28 17:28:00,
2013-02-28 12:33:00,30.1,23.8,29.90,North,11,0.0,0.0,77,0.00,,---,0.00,VWS V14.01,2013-02-28 17:33:00,
2013-02-28 12:38:00,30.3,23.7,29.90,North,9,0.0,0.0,76,0.00,,---,0.00,VWS V14.01,2013-02-28 17:38:00,
2013-02-28 12:43:00,30.6,22.7,29.90,ENE,58,0.0,0.0,72,0.00,,---,0.00,VWS V14.01,2013-02-28 17:43:00,
2013-02-28 12:48:00,30.7,21.8,29.90,ENE,64,0.0,0.0,69,0.00,,---,0.00,VWS V14.01,2013-02-28 17:48:00,
2013-02-28 12:53:00,30.9,22.3,29.90,NE,48,0.0,0.0,70,0.00,,---,0.00,VWS V14.01,2013-02-28 17:53:00,
2013-02-28 12:58:00,30.9,23.0,29.90,NNE,14,0.0,0.0,72,0.00,,---,0.00,VWS V14.01,2013-02-28 17:58:00,
2013-02-28 13:03:00,30.6,23.3,29.90,NNE,28,0.0,0.0,74,0.00,,---,0.00,VWS V14.01,2013-02-28 18:03:00,
2013-02-28 13:08:00,30.3,23.3,29.90,North,11,0.0,0.0,75,0.00,,---,0.00,VWS V14.01,2013-02-28 18:08:00,
2013-02-28 13:13:00,30.1,23.1,29.90,NNE,23,0.0,0.0,75,0.00,,---,0.00,VWS V14.01,2013-02-28 18:13:00,
2013-02-28 13:18:00,29.8,22.9,29.90,NNE,16,0.0,0.0,75,0.00,,---,0.00,VWS V14.01,2013-02-28 18:18:00,
2013-02-28 13:23:00,29.7,22.8,29.90,NNE,32,0.0,0.0,75,0.00,,---,0.00,VWS V14.01,2013-02-28 18:23:00,
2013-02-28 13:28:00,29.7,22.8,29.90,NE,36,0.0,0.0,75,0.00,,---,0.00,VWS V14.01,2013-02-28 18:28:00,
2013-02-28 13:33:00,29.8,22.9,29.90,NNE,14,0.0,0.0,75,0.00,,---,0.00,VWS V14.01,2013-02-28 18:33:00,
2013-02-28 13:38:00,29.8,23.2,29.90,North,10,0.0,0.0,76,0.00,,---,0.00,VWS V14.01,2013-02-28 18:38:00,
2013-02-28 13:43:00,30.0,23.0,29.90,NNE,28,0.0,0.0,75,0.00,,---,0.00,VWS V14.01,2013-02-28 18:43:00,
2013-02-28 13:48:00,30.1,22.8,29.90,NNE,31,0.0,0.0,74,0.00,,---,0.00,VWS V14.01,2013-02-28 18:48:00,
2013-02-28 13:53:00,30.0,22.7,29.90,NNE,19,0.0,0.0,74,0.00,,---,0.00,VWS V14.01,2013-02-28 18:53:00,
2013-02-28 13:58:00,30.1,22.8,29.90,NNE,14,0.0,0.0,74,0.00,,---,0.00,VWS V14.01,2013-02-28 18:58:00,
2013-02-28 14:03:00,30.3,22.7,29.91,NE,36,0.0,0.0,73,0.00,,---,0.00,VWS V14.01,2013-02-28 19:03:00,
2013-02-28 14:08:00,30.1,22.5,29.91,NE,44,0.0,0.0,73,0.00,,---,0.00,VWS V14.01,2013-02-28 19:08:00,
2013-02-28 14:13:00,29.7,22.4,29.91,NNE,33,0.0,0.0,74,0.00,,---,0.00,VWS V14.01,2013-02-28 19:13:00,
2013-02-28 14:19:00,29.5,22.2,29.91,NNE,27,0.0,0.0,74,0.00,,---,0.00,VWS V14.01,2013-02-28 19:19:00,
2013-02-28 14:24:00,30.1,21.9,29.91,NE,36,0.0,0.0,71,0.00,,---,0.00,VWS V14.01,2013-02-28 19:24:00,
2013-02-28 14:29:00,30.4,22.5,29.91,NNE,28,0.0,0.0,72,0.00,,---,0.00,VWS V14.01,2013-02-28 19:29:00,
2013-02-28 14:34:00,30.6,22.7,29.91,NE,35,0.0,0.0,72,0.01,,---,0.01,VWS V14.01,2013-02-28 19:34:00,
2013-02-28 14:39:00,30.6,22.3,29.92,NNE,20,0.0,0.0,71,0.01,,---,0.01,VWS V14.01,2013-02-28 19:39:00,
2013-02-28 14:44:00,30.3,22.0,29.92,North,9,0.0,0.0,71,0.01,,---,0.01,VWS V14.01,2013-02-28 19:44:00,
2013-02-28 14:49:00,30.3,21.4,29.92,NE,39,0.0,0.0,69,0.01,,---,0.01,VWS V14.01,2013-02-28 19:49:00,
2013-02-28 14:54:00,30.1,21.5,29.92,NNE,32,0.0,0.0,70,0.01,,---,0.01,VWS V14.01,2013-02-28 19:54:00,
2013-02-28 14:59:00,30.3,21.4,29.92,NNE,32,0.0,0.0,69,0.01,,---,0.01,VWS V14.01,2013-02-28 19:59:00,
2013-02-28 15:04:00,30.3,21.0,29.92,ENE,57,0.0,0.0,68,0.01,,---,0.01,VWS V14.01,2013-02-28 20:04:00,
2013-02-28 15:09:00,30.3,20.7,29.93,NE,56,0.0,0.0,67,0.01,,---,0.01,VWS V14.01,2013-02-28 20:09:00,
2013-02-28 15:14:00,30.4,21.1,29.93,NNE,18,0.0,0.0,68,0.01,,---,0.01,VWS V14.01,2013-02-28 20:14:00,
2013-02-28 15:19:00,30.1,21.5,29.94,NNE,31,0.0,0.0,70,0.01,,---,0.01,VWS V14.01,2013-02-28 20:19:00,
2013-02-28 15:24:00,29.7,21.8,29.94,NNE,27,0.0,0.0,72,0.01,,---,0.01,VWS V14.01,2013-02-28 20:24:00,
2013-02-28 15:29:00,29.4,21.5,29.93,North,5,0.0,0.0,72,0.01,,---,0.01,VWS V14.01,2013-02-28 20:29:00,
2013-02-28 15:34:00,29.3,21.1,29.94,North,360,0.0,0.0,71,0.01,,---,0.01,VWS V14.01,2013-02-28 20:34:00,
2013-02-28 15:39:00,29.1,20.9,29.94,North,5,0.0,0.0,71,0.01,,---,0.01,VWS V14.01,2013-02-28 20:39:00,
2013-02-28 15:44:00,29.1,21.2,29.94,NNE,16,0.0,0.0,72,0.00,,---,0.01,VWS V14.01,2013-02-28 20:44:00,
2013-02-28 15:49:00,29.1,21.2,29.94,North,11,0.0,0.0,72,0.00,,---,0.01,VWS V14.01,2013-02-28 20:49:00,
2013-02-28 15:54:00,29.1,20.5,29.94,NNE,18,0.0,0.0,70,0.00,,---,0.01,VWS V14.01,2013-02-28 20:54:00,
2013-02-28 15:59:00,29.1,20.5,29.94,North,5,0.0,0.0,70,0.00,,---,0.01,VWS V14.01,2013-02-28 20:59:00,
2013-02-28 16:04:00,29.1,20.5,29.94,North,11,0.0,0.0,70,0.00,,---,0.01,VWS V14.01,2013-02-28 21:04:00,
2013-02-28 16:09:00,29.1,20.5,29.94,NNE,28,0.0,0.0,70,0.00,,---,0.01,VWS V14.01,2013-02-28 21:09:00,
2013-02-28 16:14:00,29.1,20.5,29.95,NNE,23,0.0,0.0,70,0.00,,---,0.01,VWS V14.01,2013-02-28 21:14:00,
2013-02-28 16:19:00,29.1,19.9,29.95,NNE,15,0.0,0.0,68,0.00,,---,0.01,VWS V14.01,2013-02-28 21:19:00,
2013-02-28 16:24:00,29.1,19.9,29.95,NE,38,0.0,0.0,68,0.00,,---,0.01,VWS V14.01,2013-02-28 21:24:00,
2013-02-28 16:29:00,29.1,20.2,29.95,NNE,22,0.0,0.0,69,0.00,,---,0.01,VWS V14.01,2013-02-28 21:29:00,
2013-02-28 16:34:00,29.1,20.2,29.95,NNE,21,0.0,0.0,69,0.00,,---,0.01,VWS V14.01,2013-02-28 21:34:00,
2013-02-28 16:39:00,29.0,19.8,29.96,NE,39,0.0,0.0,68,0.00,,---,0.01,VWS V14.01,2013-02-28 21:39:00,
2013-02-28 16:44:00,29.0,19.8,29.96,NNE,20,0.0,0.0,68,0.00,,---,0.01,VWS V14.01,2013-02-28 21:44:00,
2013-02-28 16:49:00,29.0,20.1,29.96,North,9,0.0,0.0,69,0.00,,---,0.01,VWS V14.01,2013-02-28 21:49:00,
2013-02-28 16:54:00,29.0,20.1,29.96,NNE,24,0.0,0.0,69,0.00,,---,0.01,VWS V14.01,2013-02-28 21:54:00,
2013-02-28 16:59:00,28.8,19.6,29.96,North,5,0.0,0.0,68,0.00,,---,0.01,VWS V14.01,2013-02-28 21:59:00,
2013-02-28 17:04:00,28.8,19.6,29.97,North,9,0.0,0.0,68,0.00,,---,0.01,VWS V14.01,2013-02-28 22:04:00,
2013-02-28 17:09:00,28.8,19.6,29.97,NNE,22,0.0,0.0,68,0.00,,---,0.01,VWS V14.01,2013-02-28 22:09:00,
2013-02-28 17:14:00,28.7,19.8,29.97,NNE,12,0.0,0.0,69,0.00,,---,0.01,VWS V14.01,2013-02-28 22:14:00,
2013-02-28 17:19:00,28.7,19.8,29.97,NE,36,0.0,0.0,69,0.00,,---,0.01,VWS V14.01,2013-02-28 22:19:00,
2013-02-28 17:24:00,28.7,19.8,29.98,NE,40,0.0,0.0,69,0.00,,---,0.01,VWS V14.01,2013-02-28 22:24:00,
2013-02-28 17:29:00,28.7,19.5,29.98,North,349,0.0,0.0,68,0.00,,---,0.01,VWS V14.01,2013-02-28 22:29:00,
2013-02-28 17:34:00,28.7,19.5,29.98,NNE,17,0.0,0.0,68,0.00,,---,0.01,VWS V14.01,2013-02-28 22:34:00,
2013-02-28 17:39:00,28.7,19.5,29.98,NE,38,0.0,0.0,68,0.00,,---,0.01,VWS V14.01,2013-02-28 22:39:00,
2013-02-28 17:44:00,28.7,19.1,29.98,North,9,0.0,0.0,67,0.00,,---,0.01,VWS V14.01,2013-02-28 22:44:00,
2013-02-28 17:49:00,28.5,19.0,29.99,NNE,20,0.0,0.0,67,0.00,,---,0.01,VWS V14.01,2013-02-28 22:49:00,
2013-02-28 17:54:00,28.5,19.0,29.99,North,10,0.0,0.0,67,0.00,,---,0.01,VWS V14.01,2013-02-28 22:54:00,
2013-02-28 17:59:00,28.5,18.6,29.99,NNE,20,0.0,0.0,66,0.00,,---,0.01,VWS V14.01,2013-02-28 22:59:00,
2013-02-28 18:04:00,28.5,18.2,29.99,NE,40,0.0,0.0,65,0.00,,---,0.01,VWS V14.01,2013-02-28 23:04:00,
2013-02-28 18:09:00,28.5,18.2,29.99,North,9,0.0,0.0,65,0.00,,---,0.01,VWS V14.01,2013-02-28 23:09:00,
2013-02-28 18:14:00,28.5,18.2,30.00,NNE,19,0.0,0.0,65,0.00,,---,0.01,VWS V14.01,2013-02-28 23:14:00,
2013-02-28 18:19:00,28.4,17.8,30.00,NNE,22,0.0,0.0,64,0.00,,---,0.01,VWS V14.01,2013-02-28 23:19:00,
2013-02-28 18:25:00,28.4,17.8,30.00,NNE,32,0.0,0.0,64,0.00,,---,0.01,VWS V14.01,2013-02-28 23:25:00,
2013-02-28 18:30:00,28.2,17.6,30.00,North,5,0.0,0.0,64,0.00,,---,0.01,VWS V14.01,2013-02-28 23:30:00,
2013-02-28 18:35:00,28.2,17.2,30.00,NE,34,0.0,0.0,63,0.00,,---,0.01,VWS V14.01,2013-02-28 23:35:00,
2013-02-28 18:40:00,28.4,17.1,30.01,NE,40,0.0,0.0,62,0.00,,---,0.01,VWS V14.01,2013-02-28 23:40:00,
2013-02-28 18:45:00,28.4,17.4,30.01,NE,55,0.0,0.0,63,0.00,,---,0.01,VWS V14.01,2013-02-28 23:45:00,
2013-02-28 18:50:00,28.2,17.2,30.01,NNE,15,0.0,0.0,63,0.00,,---,0.01,VWS V14.01,2013-02-28 23:50:00,
2013-02-28 18:55:00,28.2,16.9,30.01,NE,44,0.0,0.0,62,0.00,,---,0.01,VWS V14.01,2013-02-28 23:55:00,
2013-02-28 19:00:00,28.2,16.9,30.01,NNE,31,0.0,0.0,62,0.00,,---,0.01,VWS V14.01,2013-03-01 00:00:00,
2013-02-28 19:05:00,28.2,16.9,30.02,NNE,23,0.0,0.0,62,0.00,,---,0.01,VWS V14.01,2013-03-01 00:05:00,
2013-02-28 19:10:00,28.2,16.9,30.02,NNE,19,0.0,0.0,62,0.00,,---,0.01,VWS V14.01,2013-03-01 00:10:00,
2013-02-28 19:15:00,28.2,16.5,30.02,NNW,348,0.0,0.0,61,0.00,,---,0.01,VWS V14.01,2013-03-01 00:15:00,
2013-02-28 19:20:00,28.2,16.9,30.02,NNE,24,0.0,0.0,62,0.00,,---,0.01,VWS V14.01,2013-03-01 00:20:00,
2013-02-28 19:25:00,28.2,16.9,30.03,NE,34,0.0,0.0,62,0.00,,---,0.01,VWS V14.01,2013-03-01 00:25:00,
2013-02-28 19:30:00,28.1,17.1,30.03,NNE,32,0.0,0.0,63,0.00,,---,0.01,VWS V14.01,2013-03-01 00:30:00,
2013-02-28 19:35:00,28.1,17.5,30.03,NE,42,0.0,0.0,64,0.00,,---,0.01,VWS V14.01,2013-03-01 00:35:00,
2013-02-28 19:40:00,27.9,17.3,30.03,NNE,20,0.0,0.0,64,0.00,,---,0.01,VWS V14.01,2013-03-01 00:40:00,
2013-02-28 19:45:00,27.9,17.3,30.03,NE,36,0.0,0.0,64,0.00,,---,0.01,VWS V14.01,2013-03-01 00:45:00,
2013-02-28 19:50:00,27.9,17.0,30.03,NE,34,0.0,0.0,63,0.00,,---,0.01,VWS V14.01,2013-03-01 00:50:00,
2013-02-28 19:55:00,27.9,17.0,30.03,NNE,24,0.0,0.0,63,0.00,,---,0.01,VWS V14.01,2013-03-01 00:55:00,
2013-02-28 20:00:00,27.9,16.6,30.04,NE,39,0.0,0.0,62,0.00,,---,0.01,VWS V14.01,2013-03-01 01:00:00,
2013-02-28 20:05:00,27.9,16.2,30.03,NE,42,0.0,0.0,61,0.00,,---,0.01,VWS V14.01,2013-03-01 01:05:00,
2013-02-28 20:10:00,27.9,16.6,30.04,NNE,17,0.0,0.0,62,0.00,,---,0.01,VWS V14.01,2013-03-01 01:10:00,
2013-02-28 20:15:00,27.8,16.1,30.04,NNE,26,0.0,0.0,61,0.00,,---,0.01,VWS V14.01,2013-03-01 01:15:00,
2013-02-28 20:20:00,27.6,15.9,30.04,NE,35,0.0,0.0,61,0.00,,---,0.01,VWS V14.01,2013-03-01 01:20:00,
2013-02-28 20:25:00,27.5,15.8,30.04,NNE,17,0.0,0.0,61,0.00,,---,0.01,VWS V14.01,2013-03-01 01:25:00,
2013-02-28 20:30:00,27.2,15.6,30.04,NE,36,0.0,0.0,61,0.00,,---,0.01,VWS V14.01,2013-03-01 01:30:00,
2013-02-28 20:35:00,26.9,15.6,30.04,NE,40,0.0,0.0,62,0.00,,---,0.01,VWS V14.01,2013-03-01 01:35:00,
2013-02-28 20:40:00,26.6,15.4,30.04,NE,36,0.0,0.0,62,0.00,,---,0.01,VWS V14.01,2013-03-01 01:40:00,
2013-02-28 20:45:00,26.4,15.2,30.05,NNE,12,0.0,0.0,62,0.00,,---,0.01,VWS V14.01,2013-03-01 01:45:00,
2013-02-28 20:50:00,26.3,15.1,30.05,ENE,63,0.0,0.0,62,0.00,,---,0.01,VWS V14.01,2013-03-01 01:50:00,
2013-02-28 20:55:00,26.1,14.9,30.05,NNE,27,0.0,0.0,62,0.00,,---,0.01,VWS V14.01,2013-03-01 01:55:00,
2013-02-28 21:00:00,25.8,14.6,30.05,NE,42,0.0,0.0,62,0.00,,---,0.01,VWS V14.01,2013-03-01 02:00:00,
2013-02-28 21:06:00,25.7,14.9,30.05,NE,45,0.0,0.0,63,0.00,,---,0.01,VWS V14.01,2013-03-01 02:06:00,
2013-02-28 21:11:00,25.4,14.6,30.05,NE,44,0.0,0.0,63,0.00,,---,0.01,VWS V14.01,2013-03-01 02:11:00,
2013-02-28 21:16:00,25.4,14.6,30.06,NE,46,0.0,0.0,63,0.00,,---,0.01,VWS V14.01,2013-03-01 02:16:00,
2013-02-28 21:21:00,25.4,14.6,30.06,NE,44,0.0,0.0,63,0.00,,---,0.01,VWS V14.01,2013-03-01 02:21:00,
2013-02-28 21:26:00,25.4,14.6,30.06,NE,53,0.0,0.0,63,0.00,,---,0.01,VWS V14.01,2013-03-01 02:26:00,
2013-02-28 21:31:00,25.4,14.6,30.06,NE,44,0.0,0.0,63,0.00,,---,0.01,VWS V14.01,2013-03-01 02:31:00,
2013-02-28 21:36:00,25.6,14.8,30.06,NE,42,0.0,0.0,63,0.00,,---,0.01,VWS V14.01,2013-03-01 02:36:00,
2013-02-28 21:41:00,25.3,14.5,30.06,NE,55,0.0,0.0,63,0.00,,---,0.01,VWS V14.01,2013-03-01 02:41:00,
2013-02-28 21:46:00,25.1,14.3,30.06,NE,53,0.0,0.0,63,0.00,,---,0.01,VWS V14.01,2013-03-01 02:46:00,
2013-02-28 21:51:00,25.1,14.3,30.07,NNE,16,0.0,0.0,63,0.00,,---,0.01,VWS V14.01,2013-03-01 02:51:00,
2013-02-28 21:56:00,24.8,14.0,30.07,NE,44,0.0,0.0,63,0.00,,---,0.01,VWS V14.01,2013-03-01 02:56:00,
2013-02-28 22:01:00,24.8,14.4,30.07,NE,49,0.0,0.0,64,0.00,,---,0.01,VWS V14.01,2013-03-01 03:01:00,
2013-02-28 22:06:00,24.7,14.3,30.07,NNE,28,0.0,0.0,64,0.00,,---,0.01,VWS V14.01,2013-03-01 03:06:00,
2013-02-28 22:11:00,24.7,14.3,30.07,NNE,26,0.0,0.0,64,0.00,,---,0.01,VWS V14.01,2013-03-01 03:11:00,
2013-02-28 22:16:00,24.7,14.3,30.07,NNE,28,0.0,0.0,64,0.00,,---,0.01,VWS V14.01,2013-03-01 03:16:00,
2013-02-28 22:21:00,24.7,14.3,30.07,NE,47,0.0,0.0,64,0.00,,---,0.01,VWS V14.01,2013-03-01 03:21:00,
2013-02-28 22:26:00,24.7,14.3,30.07,NE,46,0.0,0.0,64,0.00,,---,0.01,VWS V14.01,2013-03-01 03:26:00,
2013-02-28 22:31:00,24.7,14.3,30.08,NNE,24,0.0,0.0,64,0.00,,---,0.01,VWS V14.01,2013-03-01 03:31:00,
2013-02-28 22:36:00,24.7,14.3,30.08,NE,38,0.0,0.0,64,0.00,,---,0.01,VWS V14.01,2013-03-01 03:36:00,
2013-02-28 22:41:00,24.7,14.3,30.08,NE,42,0.0,0.0,64,0.00,,---,0.01,VWS V14.01,2013-03-01 03:41:00,
2013-02-28 22:46:00,24.7,14.3,30.08,NE,44,0.0,0.0,64,0.00,,---,0.01,VWS V14.01,2013-03-01 03:46:00,
2013-02-28 22:51:00,24.7,13.9,30.08,NNE,32,0.0,0.0,63,0.00,,---,0.01,VWS V14.01,2013-03-01 03:51:00,
2013-02-28 22:56:00,24.7,13.9,30.08,NE,40,0.0,0.0,63,0.00,,---,0.01,VWS V14.01,2013-03-01 03:56:00,
2013-02-28 23:01:00,24.5,14.1,30.08,ENE,63,0.0,0.0,64,0.00,,---,0.01,VWS V14.01,2013-03-01 04:01:00,
2013-02-28 23:06:00,24.5,14.1,30.08,NE,41,0.0,0.0,64,0.00,,---,0.01,VWS V14.01,2013-03-01 04:06:00,
2013-02-28 23:11:00,24.5,14.1,30.08,ENE,57,0.0,0.0,64,0.00,,---,0.01,VWS V14.01,2013-03-01 04:11:00,
2013-02-28 23:16:00,24.4,14.0,30.08,NNE,32,0.0,0.0,64,0.00,,---,0.01,VWS V14.01,2013-03-01 04:16:00,
2013-02-28 23:21:00,24.4,14.0,30.09,NE,50,0.0,0.0,64,0.00,,---,0.01,VWS V14.01,2013-03-01 04:21:00,
2013-02-28 23:26:00,24.2,14.1,30.09,NE,49,0.0,0.0,65,0.00,,---,0.01,VWS V14.01,2013-03-01 04:26:00,
2013-02-28 23:31:00,24.2,14.1,30.09,North,5,0.0,0.0,65,0.00,,---,0.01,VWS V14.01,2013-03-01 04:31:00,
2013-02-28 23:36:00,24.2,13.8,30.09,NE,49,0.0,0.0,64,0.00,,---,0.01,VWS V14.01,2013-03-01 04:36:00,
2013-02-28 23:41:00,24.1,13.7,30.09,ENE,76,0.0,0.0,64,0.00,,---,0.01,VWS V14.01,2013-03-01 04:41:00,
2013-02-28 23:46:00,23.8,13.4,30.09,East,79,0.0,0.0,64,0.00,,---,0.01,VWS V14.01,2013-03-01 04:46:00,
2013-02-28 23:51:00,23.6,13.6,30.10,NE,54,0.0,0.0,65,0.00,,---,0.01,VWS V14.01,2013-03-01 04:51:00,
2013-02-28 23:56:00,23.5,13.5,30.10,NE,52,0.0,0.0,65,0.00,,---,0.01,VWS V14.01,2013-03-01 04:56:00,